Location: Asheville, NC
(35.6000°N, 82.5500°W)
Time: 11:49:59

Vanguard 1 Rocket - Pass Details

Date: 12 December 2017
Orbit: 655 x 4222 km, 34.3° (Epoch: 19 March)

Event Time Altitude Azimuth Distance (km) Brightness Sun altitude
Rises 00:36:41 0° 287° (WNW) 7,299 12.0 -77.2°
Reaches altitude 10° 00:41:27 10° 281° (WNW) 6,639 11.7 -76.9°
Enters shadow 00:42:13 12° 280° (W) 6,540 11.6 -76.9°
Maximum altitude 01:02:52 44° 220° (SW) 5,135 - -74.9°
Exits shadow 01:24:41 10° 156° (SSE) 6,682 11.7 -71.8°
Drops below altitude 10° 01:24:51 10° 156° (SSE) 6,702 11.7 -71.8°
Sets 01:29:49 0° 150° (SSE) 7,358 12.0 -71.0°
